UMBRA-03 (52753 NORAD) Tracking and Keplerian Element Data

This shows tracking and keplerian element data for the satellite.

Feedback or suggestion? Click here.




ElementValue
Catalog52753
NameUMBRA-03
Epoch Orbit712
Epoch Day192.84803217
Epoch Year2022
RAAN307.1748
Inclination97.5175
Eccentricity0.0010975
Argument of Perigee80.3895
Mean Anonmoly279.8576
Mean Motion15.13152485
Decay Rate0.00012254
L11 52753U 22057X 22192.84803217 .00012254 00000+0 69323-3 0 9996
L22 52753 97.5175 307.1748 0010975 80.3895 279.8576 15.13152485 7122

Live tracking and technical data element details for UMBRA-03 (NORAD 52753). UMBRA-03 can be tracked NOW for your location showing map with azimuth and elevation plus other details from your city location.

Track the satellite on the map from your city or location and see movement details for azimuth, elevation, latitude, longitude, range, height, and movement on the map or in text.







IsCatalogInMostPopularTable: catalog: 52753, numindb: 4
Update: records affected: 1



GetName: 52753 UMBRA-03

Hit Count: updated at: Sat, 13 Aug 2022 23:58:27 GMT